CAPE
0 0 0 0 0 0 0 0 0 3 3 1 1 2 2 1 1 3 5 11 15 15 12 8 6 1 0
0 0 0 0 0 0 0 0 0 0 2 2 1 3 5 1 0 1 0 0 0 3 3 2 6 4 4
0 0 0 0 0 0 0 0 0 0 0 1 1 4 2 1 2 1 2 1 0 0 0 0 0 0 2
0 0 0 0 0 0 0 0 0 0 0 0 0 0 0 0 0 0 0 0 0 0 0 0 0 0 0
0 0 0 0 0 0 0 0 0 0 0 0 0 0 0 0 0 0 0 0 0 0 0 0 0 0 0
0 0 0 0 0 0 0 0 0 0 0 0 0 0 0 0 0 0 0 0 0 0 0 0 0 0 0
0 0 0 0 0 0 0 0 0 0 0 0 0 0 0 0 0 0 0 0 0 0 0 0 0 0 0
0 0 0 0 0 0 0 0 0 0 0 0 0 0 0 0 0 0 0 0 0 2 0 0 0 0 0
0 0 0 0 0 0 0 0 0 0 0 0 0 0 0 0 0 1 1 2 1 0 0 0 0 0 0
0 0 0 0 0 0 0 0 0 0 0 0 0 0 0 0 0 0 0 0 0 0 0 0 0 0 0
0 0 0 0 0 0 0 0 0 0 0 0 0 0 0 0 0 0 0 0 0 0 0 0 0 0 0
0 0 0 0 0 0 0 0 0 0 0 0 0 0 0 0 0 0 0 0 0 0 0 0 0 0 0
0 0 0 0 0 0 0 0 0 0 0 0 0 0 0 0 0 0 0 0 0 0 0 0 0 0 0
0 0 0 0 0 0 0 0 0 0 0 0 0 0 0 0 0 0 0 0 0 0 0 0 0 0 0
0 0 0 0 0 0 0 0 0 0 0 0 0 0 0 0 0 0 0 0 0 0 0 0 0 0 0
0 0 0 0 0 0 0 0 0 0 0 0 0 0 0 0 0 0 0 0 0 0 0 1 0 0 0
0 0 0 0 0 0 0 0 0 0 0 0 0 0 0 0 0 0 0 0 0 0 0 0 0 0 0
CIN
-0 -0 -0 -0 -0 -0 -0 -0 -0 -0 -1 -0 -0 -0 -0 -0 -0 -0 -0 -0 -0 -0 -0 -0 -0 -0 -0
-0 -0 -0 -0 -0 -0 -0 -0 -0 -0 -0 -0 -0 -0 -0 -0 -0 -0 -0 -0 -0 -0 -0 -0 -0 -0 -0
-0 -0 -0 -0 -0 -0 -0 -0 -0 -0 -0 -0 -0 -0 -0 -0 -0 -0 -0 -0 -0 -0 -0 -0 -0 -0 -0
-0 -0 -0 -0 -0 -0 -0 -0 -0 -0 -0 -0 -0 -0 -0 -0 -0 -0 -0 -0 -0 -0 -0 -0 -0 -0 -0
-0 -0 -0 -0 -0 -0 -0 -0 -0 -0 -0 -0 -0 -0 -0 -0 -0 -0 -0 -0 -0 -0 -0 -0 -0 -0 -0
-0 -0 -0 -0 -0 -0 -0 -0 -0 -0 -0 -0 -0 -0 -0 -0 -0 -0 -0 -0 -0 -0 -0 -0 -0 -0 -0
-0 -0 -0 -0 -0 -0 -0 -0 -0 -0 -0 -0 -0 -0 -0 -0 -0 -0 -0 -0 -0 -0 -0 -0 -0 -0 -0
-0 -0 -0 -0 -0 -0 -0 -0 -0 -0 -0 -0 -0 -0 -0 -0 -0 -0 -0 -0 -0 -0 -0 -0 -0 -0 -0
-0 -0 -0 -0 -0 -0 -0 -0 -0 -0 -0 -0 -0 -0 -0 -0 -0 -1 -0 -0 -0 -0 -0 -0 -0 -0 -0
-0 -0 -0 -0 -0 -0 -0 -0 -0 -0 -0 -0 -0 -0 -0 -0 -0 -0 -0 -0 -0 -0 -0 -0 -0 -0 -0
-0 -0 -0 -0 -0 -0 -0 -0 -0 -0 -0 -0 -0 -0 -0 -0 -0 -0 -0 -0 -0 -0 -0 -0 -0 -0 -0
-0 -0 -0 -0 -0 -0 -0 -0 -0 -0 -0 -0 -0 -0 -0 -0 -0 -0 -0 -0 -0 -0 -0 -0 -0 -0 -0
-0 -0 -0 -0 -0 -0 -0 -0 -0 -0 -0 -0 -0 -0 -0 -0 -0 -0 -0 -0 -0 -0 -0 -0 -0 -0 -0
-0 -0 -0 -0 -0 -0 -0 -0 -0 -0 -0 -0 -0 -0 -0 -0 -0 -0 -0 -0 -0 -0 -0 -0 -0 -0 -0
-0 -0 -0 -0 -0 -0 -0 -0 -0 -0 -0 -0 -0 -0 -0 -0 -0 -0 -0 -0 -0 -0 -0 -0 -0 -0 -0
-0 -0 -0 -0 -0 -0 -0 -0 -0 -0 -0 -0 -0 -0 -0 -0 -0 -0 -0 -0 -0 -0 -0 -0 -0 -0 -0
-0 -0 -0 -0 -0 -0 -0 -0 -0 -0 -0 -0 -0 -0 -0 -0 -0 -0 -0 -0 -0 -0 -0 -0 -0 -0 -0
Wind_Speed
1 2 2 4 2 3 3 3 4 8 7 7 8 10 12 14 15 16 17 16 18 18 17 16 14 12 10
2 1 2 2 3 3 2 3 3 7 6 8 9 10 11 13 13 13 13 15 16 15 15 14 13 11 10
3 2 1 1 3 2 3 3 4 7 8 9 7 9 11 11 12 12 13 15 15 15 15 14 13 11 9
2 2 2 1 2 2 2 3 2 3 5 7 9 9 9 9 9 9 9 11 12 11 12 11 10 9 7
2 2 3 3 3 3 2 2 0 0 0 3 3 3 4 6 5 6 6 7 7 8 8 8 8 7 6
3 3 3 3 3 3 3 3 2 1 1 1 1 2 2 3 4 4 5 4 5 5 6 6 6 6 8
3 4 4 6 6 4 3 2 3 2 2 2 1 2 1 2 2 2 2 4 4 6 7 5 6 6 6
3 3 3 5 5 4 5 5 3 2 1 2 1 1 1 2 5 3 5 5 5 7 7 6 6 7 6
5 5 6 11 7 6 3 4 1 2 1 2 2 2 0 1 3 3 4 5 5 5 5 5 5 5 4
5 7 7 6 7 2 4 4 3 1 3 3 2 2 1 1 1 2 2 3 4 4 4 3 5 3 3
3 3 4 4 3 3 3 3 3 1 3 3 2 1 2 1 1 1 0 0 1 3 3 0 2 5 2
2 1 2 2 1 2 3 3 2 2 6 4 3 3 3 0 2 1 1 1 1 1 1 2 4 4 5
2 2 1 2 3 3 3 4 4 3 3 2 3 3 3 2 2 2 1 1 1 1 1 1 2 1 1
2 2 2 2 2 2 2 1 2 1 1 3 4 4 2 2 3 2 2 1 0 1 1 1 2 3 3
3 3 2 3 2 2 2 1 2 2 1 1 3 4 3 4 2 4 3 3 3 2 2 2 3 4 4
3 3 4 4 4 2 1 2 3 3 2 2 2 1 1 5 13 5 2 3 2 4 3 3 5 3 4
5 5 4 4 7 4 4 3 3 3 4 3 3 3 2 3 2 15 5 2 2 5 5 6 4 3 3
Wind_Direction
103 115 142 137 122 90 54 51 57 72 66 76 64 63 56 50 47 50 61 70 82 89 96 103 111 115 112
130 153 144 159 130 103 61 58 53 71 64 79 77 74 72 57 59 62 70 76 79 89 98 104 108 120 119
138 133 133 149 107 86 84 57 44 57 52 58 74 73 66 63 60 64 73 81 81 79 81 83 86 89 90
144 141 135 124 122 141 133 62 58 19 43 53 55 63 68 64 59 63 68 83 91 93 91 91 88 89 89
152 137 146 149 193 148 125 112 55 68 98 27 34 35 21 38 41 61 74 85 92 95 96 92 89 95 105
166 185 167 154 140 151 124 135 203 199 130 91 48 67 1 8 57 62 76 92 105 110 108 102 110 118 120
204 189 171 182 140 147 150 142 164 168 125 161 42 113 359 343 344 61 104 108 114 122 106 115 129 124 125
195 206 180 168 153 168 144 115 83 99 121 152 103 141 360 326 349 65 155 135 136 125 114 109 107 111 100
104 125 138 148 149 119 128 118 129 187 145 138 155 124 27 324 345 70 119 124 115 114 120 117 115 103 57
32 48 68 126 147 42 144 140 127 137 189 138 138 140 19 316 333 8 21 72 82 123 101 140 135 100 75
82 72 72 75 66 70 102 127 136 141 172 115 136 130 90 184 283 306 14 19 48 42 31 359 172 151 160
128 142 152 101 89 93 92 90 75 149 152 130 134 145 133 208 220 308 305 281 126 99 340 295 255 246 252
176 180 177 152 117 75 58 74 64 83 123 136 131 142 144 170 182 220 145 278 170 170 256 192 165 105 2
165 160 126 115 149 140 146 126 98 333 62 153 139 143 149 202 162 220 214 223 343 162 156 241 244 226 233
167 162 167 160 185 167 149 129 148 167 265 208 186 192 205 163 213 219 223 227 215 226 162 273 258 252 245
176 183 195 192 187 162 136 175 176 190 199 197 132 121 308 246 215 222 210 208 204 199 207 246 273 244 232
202 199 191 191 212 192 193 184 212 197 204 169 159 137 162 241 280 205 209 215 177 222 220 214 235 253 225